Regional Weather Roundup
Issued by NWS Wilmington, NC

Home | Current Version | Previous Version | Text Only | Print | Product List | Glossary On
Versions: 1 2 3 4 5 6 7 8 9 10 11 12 13 14 15 16 17 18 19 20 21 22 23 24 25 26 27 28 29 30 31 32 33 34 35 36 37 38 39 40 41 42 43 44 45 46 47 48 49 50
000
ASUS42 KILM 280112
RWRILM
RWRILM
REGIONAL HOURLY WEATHER ROUNDUP
NATIONAL WEATHER SERVICE WILMINGTON NC
900 PM EDT MON MAR 27 2017

NOTE: "FAIR" INDICATES FEW OR NO CLOUDS BELOW 12,000 FEET WITH NO
SIGNIFICANT WEATHER AND/OR OBSTRUCTIONS TO VISIBILITY.

...............WFO WILMINGTON COUNTY WARNING AREA...............

......COASTAL NC AND SC COUNTIES......

CITY           SKY/WX    TMP DP  RH WIND       PRES   REMARKS
WILMINGTON     CLEAR     65  56  72 S7        30.04S
N MYRTLE BEACH CLEAR     66  59  78 S9        30.04R
MYRTLE BEACH   CLEAR     66  59  77 S13       30.04R

......INLAND NC AND SC COUNTIES.......

CITY           SKY/WX    TMP DP  RH WIND       PRES   REMARKS
LUMBERTON      PTCLDY    69  55  60 S9        30.00R
ELIZABETHTOWN  PTCLDY    67  56  66 S6        30.02S
WHITEVILLE     PTCLDY    67  55  66 S5        30.03R
FLORENCE       PTCLDY    69  60  73 S10       30.00R
DARLINGTON     MOCLDY    71  61  70 SE13      29.99R
KINGSTREE      FAIR      68  55  64 SE8       30.01R
HARTSVILLE     CLOUDY    70  57  64 S7        29.99R
BENNETTSVILLE  FAIR      72  61  68 SE12      29.98S
CONWAY         FAIR      64  57  77 S5        30.03S
GEORGETOWN     NOT AVBL
MARION         MOCLDY    68  55  64 S8        30.01S

....................REST OF NORTH CAROLINA......................

.........EASTERN NC.........

CITY           SKY/WX    TMP DP  RH WIND       PRES   REMARKS
CAPE HATTERAS  CLEAR     69  57  65 SW9       30.05S
JACKSONVILLE   CLEAR     65  55  70 S7        30.04R
MOREHEAD CITY  CLEAR     66  62  87 S8        30.05S
KENANSVILLE    CLEAR     68  55  64 S6        30.03R
NEW BERN       CLEAR     65  56  72 S7        30.04S
ELIZABETH CITY CLEAR     66  54  65 S8        30.01S

.........CENTRAL NC.........

CITY           SKY/WX    TMP DP  RH WIND       PRES   REMARKS
RALEIGH DURHAM MOCLDY    71  57  61 S8        29.98R
ROCKY MOUNT    CLEAR     68  57  68 S5        29.97F
ROANOKE RAPIDS NOT AVBL
FAYETTEVILLE   CLOUDY    72  55  55 S13       29.99R
HOFFMAN        CLOUDY    68  59  72 S9        29.98R

.........WESTERN NC.........

CITY           SKY/WX    TMP DP  RH WIND       PRES   REMARKS
CHARLOTTE      MOCLDY    70  56  61 S7        29.97R
GREENSBORO     MOCLDY    67  58  72 S6        29.95F
HICKORY        NOT AVBL
BOONE          NOT AVBL
ASHEVILLE      NOT AVBL

.....................REST OF SOUTH CAROLINA.....................

.........EASTERN SC.........

CITY           SKY/WX    TMP DP  RH WIND       PRES   REMARKS
CHARLESTON     PTCLDY    67  57  70 S10       30.02S
BEAUFORT MCAS  MOCLDY    68  61  78 S7        30.02R
HILTON HEAD    PTCLDY    66  61  82 VRB7G14   30.03R

.........CENTRAL SC.........

CITY           SKY/WX    TMP DP  RH WIND       PRES   REMARKS
COLUMBIA       MOCLDY    72  59  63 CALM      29.97R
ORANGEBURG     CLOUDY    70  60  70 S9        30.00R
SUMTER SHAW    CLEAR     71  60  67 S14       29.97R

.........WESTERN SC.........

CITY           SKY/WX    TMP DP  RH WIND       PRES   REMARKS
GREENVILLE     NOT AVBL
ROCK HILL      PTCLDY    70  57  63 S3        29.97R
ANDERSON       CLOUDY    69  57  65 S8        29.95F
CLEMSON        NOT AVBL
GREENWOOD      CLOUDY    70  58  65 S6        29.97S


...................COASTAL AND OFFSHORE REPORTS..................

................LOCAL PIERS AND NC RESERVE................


STATION/POSITION TIME  SKY/WX   TEMP    WIND        PRES    VSBY
                                AIR SEA DIR/SP/G
                 (UTC)          (F)     (DEG/KT/KT) (MB)    (MI)
JOHNY MRCER PIER 0048            62 58  190/  4/  7 1016.1S
NC RESRV MASNBRO 2345            64     220/  3     1016.0
OCEAN CREST PIER NOT AVBL
SPRINGMAID  PIER 0048                               1016.3F


................COASTAL AND OFFSHORE BUOYS................


STATION/POSITION TIME  SKY/WX   TEMP    WIND        PRES    VSBY
                                AIR SEA DIR/SP/G
                 (UTC)          (F)     (DEG/KT/KT) (MB)    (MI)
DIMNDSHOAL 41025 0050            71 75  200/ 12/ 14 1017.8R
WVE H/P(F/S)=  4/ 9 SWL H/P/D(F/S/D)=  3/120/ 9

CAPE LOOKOUT     0000            66     160/  8/  8 1017.4F
ONSLOW BAY 41036 NOT AVBL
ONSLOW BAY 41064 0008            66     160/  4/  6 1017.7F
ONSLOW BAY 41159 0043               64                N/A
WVE H/P(F/S)=  4/10 SWL H/P/D(F/S/D)=  2/140/11

MASNBO INL 41110 0059               61                N/A
WVE H/P(F/S)=  3/11 SWL H/P/D(F/S/D)=  2/140/11

WILM HARBR 41108 0047               62                N/A
WVE H/P(F/S)=  3/11 SWL H/P/D(F/S/D)=  2/140/11

27SE WRITB 41037 0008            69 66  220/  4/  6 1016.9R
FRYING PAN 41013 0050            72 76  180/ 10/ 14 1017.3S
WVE H/P(F/S)=  4/10 SWL H/P/D(F/S/D)=  3/150/10

SUNST NRSH 41024 NOT AVBL
CAPRS NRSH 41029 0008            65     170/  8/ 10 1016.6F
EDISTO     41004 2350            72 75  170/ 12/ 14 1016.4
WVE H/P(F/S)=  4/10 SWL H/P/D(F/S/D)=  3/130/10



..........OFFSHORE BUOYS BEYOND 100 NM OFFSHORE...........
.....IN A TRIANGLE---HAT TO BERMUDA TO BAHAMAS TO HAT.....


STATION/POSITION TIME  SKY/WX   TEMP    WIND        PRES    VSBY
                                AIR SEA DIR/SP/G
                 (UTC)          (F)     (DEG/KT/KT) (MB)    (MI)
150E HAT   41001 NOT AVBL
W BERMUDA  41048 2350            67 68   80/ 12/ 14 1018.3
WVE H/P(F/S)=  6/ 8 SWL H/P/D(F/S/D)=  5/130/ 8

ATLANTIC S 41049 2350            71 72   90/ 16/ 19 1012.4
WVE H/P(F/S)=  9/ 8 SWL H/P/D(F/S/D)=  5/ 90/ 8

E BAHAMAS  41046 NOT AVBL
NE BAHAMAS 41047 0050            67 72   40/ 23/ 27 1014.8R
WVE H/P(F/S)= 11/ 9 SWL H/P/D(F/S/D)=  3/ 80/17

120E CANVRL41010 NOT AVBL

END



USA.gov is the U.S. government's official web portal to all federal, state and local government web resources and services.